Lid_Strength_Index
7 7 7 7 7 6 7 7 6 6 4 3 3 3 3 3 3 2 3 4 5 6 7 8 8 9 9 9 10 10 11 12 11 10 11 11 11 11 11 11 11 12 12
8 8 8 8 8 8 8 8 7 7 5 4 4 3 4 3 3 3 4 5 5 6 7 7 8 10 10 10 10 11 12 11 11 10 10 12 12 12 12 12 12 12 12
9 9 9 10 9 10 9 9 8 8 7 6 5 5 7 6 6 5 6 6 6 7 7 8 8 10 10 11 11 11 11 12 12 11 9 12 11 12 12 12 12 13 12
10 10 10 10 10 11 10 9 9 9 9 7 7 7 8 9 8 8 7 7 7 7 8 8 9 9 10 11 11 11 10 10 12 12 12 11 10 12 14 13 13 13 13
10 11 11 11 10 10 10 11 10 10 9 9 8 8 8 8 8 9 9 8 8 8 8 8 9 9 10 10 11 12 11 10 9 10 12 12 12 12 11 13 14 14 13
11 11 10 10 10 10 11 11 11 11 11 10 9 9 9 9 9 10 10 10 10 10 9 9 9 9 10 11 11 11 11 10 10 10 11 11 12 13 12 13 13 14 14
11 11 11 11 11 11 11 11 11 12 11 11 11 10 10 10 10 10 10 10 11 11 11 10 10 10 10 11 11 12 11 11 11 10 11 11 11 11 11 12 13 14 14
11 11 11 11 11 11 11 11 11 11 11 11 11 11 11 11 10 10 10 10 10 10 11 11 11 11 11 11 12 12 12 12 11 11 10 11 11 11 12 12 13 15 15
13 12 11 11 11 11 11 11 11 11 11 11 11 11 11 11 11 11 11 11 10 11 11 11 12 11 11 12 12 13 13 12 12 12 11 11 12 12 12 12 11 12 15
12 12 12 11 11 11 11 11 10 11 12 11 11 11 11 11 11 11 12 12 11 11 12 12 12 12 12 12 13 12 12 13 13 12 13 13 13 13 13 13 13 12 12
12 11 11 10 10 11 11 11 11 11 12 12 11 11 11 11 12 12 12 12 12 12 12 12 12 12 13 12 13 12 12 13 13 14 14 14 13 13 14 14 14 14 13
12 11 10 11 10 11 11 11 11 11 11 12 12 12 12 12 12 12 11 11 12 12 12 12 13 12 13 12 13 13 13 14 15 15 15 14 15 14 14 14 15 15 15
13 12 11 11 12 11 12 12 12 12 11 11 11 11 12 13 13 13 12 12 12 13 12 12 12 13 13 13 13 14 14 15 14 15 15 15 16 15 15 15 15 15 16
13 13 12 11 12 11 12 12 13 12 12 12 11 11 11 11 12 14 14 13 12 12 13 13 13 13 13 13 14 14 14 14 14 14 14 15 16 15 15 16 15 15 15
12 12 11 10 11 12 13 12 12 12 12 12 11 11 11 11 12 12 13 13 14 13 13 13 13 13 13 14 14 14 14 14 15 15 15 15 15 14 14 15 15 16 16
11 11 11 10 10 11 11 11 11 11 10 12 12 12 11 11 12 12 13 13 14 14 13 14 13 13 14 12 12 13 14 14 15 15 15 15 15 15 13 13 14 15 16
11 11 10 10 9 10 11 11 11 11 10 12 12 13 12 13 13 13 13 13 14 13 14 14 13 13 13 12 12 12 14 14 14 15 15 16 16 16 15 14 14 15 14
10 10 10 10 9 10 11 11 11 11 11 12 12 12 12 13 13 14 13 13 13 14 14 14 13 13 13 11 11 12 13 13 14 14 14 15 16 16 16 16 16 16 16
9 9 8 9 9 10 11 11 11 12 11 12 12 12 12 14 15 16 15 13 13 13 14 13 13 13 12 12 11 11 12 13 14 14 14 14 15 15 14 16 16 17 17
8 9 9 9 10 10 10 12 12 12 13 12 12 12 12 15 16 15 16 15 14 13 12 14 13 13 13 12 12 12 12 13 13 13 14 14 14 14 14 15 16 18 18
8 9 9 10 10 10 11 13 13 13 12 12 13 13 14 15 15 16 16 16 16 15 15 13 12 12 13 13 12 12 12 12 12 13 14 15 14 14 14 13 15 16 16
9 9 10 11 11 11 12 14 14 13 14 15 16 16 17 17 17 18 18 17 17 17 16 14 13 12 11 13 13 12 12 12 12 13 13 14 14 13 14 13 14 14 16
10 10 12 13 13 13 13 15 15 15 17 18 20 20 20 20 20 20 20 19 18 18 17 15 13 12 11 11 11 12 11 12 12 12 13 14 14 13 13 12 14 15 17
11 12 13 15 15 14 15 16 16 17 20 21 21 21 22 21 21 21 21 21 20 19 18 16 14 13 12 11 12 13 12 12 12 11 13 14 14 14 14 14 14 15 17
13 14 15 16 17 16 17 18 19 20 21 22 22 22 22 23 22 22 21 21 20 19 19 18 15 14 13 11 11 12 13 12 11 14 15 16 16 16 15 15 17 17 19
15 16 17 17 18 19 20 20 20 22 23 24 24 23 23 23 23 23 22 19 18 17 16 15 15 15 13 10 10 10 10 10 10 15 16 16 17 16 16 16 17 18 19